Regional Weather Roundup
Issued by NWS

Home | Current Version | Previous Version | Graphics & Text | Print | Product List | Glossary On
Versions: 1 2 3 4 5 6 7 8 9 10 11 12 13 14 15 16 17 18 19 20 21 22 23 24 25 26 27 28 29 30 31 32 33 34 35 36 37 38 39 40 41 42 43 44 45 46 47 48 49 50
000
ASUS43 KLMK 050010
RWRKY
KENTUCKY REGIONAL WEATHER ROUNDUP
NATIONAL WEATHER SERVICE LOUISVILLE KY
800 PM EDT WED MAY 04 2016

NOTE "FAIR" INDICATES FEW OR NO CLOUDS BELOW 12,000 FEET
WITH NO SIGNIFICANT WEATHER AND/OR OBSTRUCTIONS TO VISIBILITY.

KYZ001>023-026-027-061>063-070>075-050100-
WESTERN AND SOUTH CENTRAL KENTUCKY

CITY           SKY/WX    TMP DP  RH WIND       PRES   REMARKS
PADUCAH        CLOUDY    64  41  42 N14       29.81R
HENDERSON      MOCLDY    59  39  47 NW9G18    29.80R
OWENSBORO      LGT RAIN  55  45  69 N12       29.80R
HOPKINSVILLE   CLEAR     62  43  49 N12       29.78R
BOWLING GREEN  CLOUDY    62  40  44 NW12G21   29.75R
GLASGOW        CLEAR     57  44  60 N3        29.74R
$$

KYZ024-025-028>034-038-045-046-053-050100-
NORTH CENTRAL KENTUCKY

CITY           SKY/WX    TMP DP  RH WIND       PRES   REMARKS
LOUISVILLE/SDF LGT RAIN  56  42  59 NW17G26   29.74R
LOUISVILLE/LOU CLOUDY    58  39  49 NW9G25    29.75R
FORT KNOX      CLOUDY    56  44  65 NW13G20   29.73R
$$

KYZ035>037-039>044-047>052-055>060-089>105-050100-
NORTHEAST KENTUCKY

CITY           SKY/WX    TMP DP  RH WIND       PRES   REMARKS
LEXINGTON      MOCLDY    55  43  63 NW14      29.72R
COVINGTON      PTCLDY    52  35  52 NW17G28   29.72R
FRANKFORT      CLEAR     56  38  50 NW12      29.71R
$$

KYZ054-064>069-076>088-106>120-050100-
SOUTHEAST KENTUCKY

CITY           SKY/WX    TMP DP  RH WIND       PRES   REMARKS
JACKSON        LGT RAIN  48  46  93 CALM      29.70R FOG
LONDON         MOCLDY    48  46  93 S3        29.72R
SOMERSET       CLOUDY    52  46  82 NW3       29.74R
MIDDLESBORO    TSTM      48  44  87 W3G21     29.76R
MONTICELLO     MOCLDY    54  48  80 N16       29.75R
$$





USA.gov is the U.S. government's official web portal to all federal, state and local government web resources and services.